Regional Weather Roundup
Issued by NWS

Home | Current Version | Previous Version | Graphics & Text | Print | Product List | Glossary On
Versions: 1 2 3 4 5 6 7 8 9 10 11 12 13 14 15 16 17 18 19 20 21 22 23 24 25 26 27 28 29 30 31 32 33 34 35 36 37 38 39 40 41 42 43 44 45 46 47 48 49 50
000
ASUS45 KBOU 212307
RWRCO

WEATHER ROUNDUP FOR COLORADO
NATIONAL WEATHER SERVICE DENVER/BOULDER CO
500 PM MDT THU MAY 21 2015

NOTE: "FAIR" INDICATES FEW OR NO CLOUDS BELOW 12000 FEET WITH NO
SIGNIFICANT WEATHER AND/OR OBSTRUCTIONS TO VISIBILITY.

COZ001>005-013-030-031-220000-
...NORTHWEST COLORADO...

CITY           SKY/WX    TMP DP  RH WIND       PRES   REMARKS
CRAIG          CLOUDY    66  37  34 E10       29.97F
HAYDEN         CLOUDY    61  36  39 E10       29.99F
MEEKER         CLOUDY    63  40  42 VRB3      29.96F
MOUNT WERNER   NOT AVBL
STEAMBOAT SPGS CLOUDY    61  36  39 W5        30.01F
WALDEN         CLOUDY    54  32  43 NE9       30.10F
$$

COZ006>008-011-220000-
...WEST CENTRAL VALLEYS...

CITY           SKY/WX    TMP DP  RH WIND       PRES   REMARKS
GRAND JUNCTION CLOUDY    65  38  36 VRB3      29.88F
MONTROSE       CLOUDY    67  33  28 SW8       29.94F
EAGLE          CLOUDY    61  34  36 NW7       30.02F
RIFLE          CLOUDY    68  36  30 E14       29.91F
DELTA          CLOUDY    70  35  27 CALM      29.91F
NUCLA          CLOUDY    68  28  22 S21G39    29.96S
$$

COZ017>023-064>068-220000-
...SOUTHWEST COLORADO...

CITY           SKY/WX    TMP DP  RH WIND       PRES   REMARKS
DURANGO        CLOUDY    58  37  45 SE17G28   30.03R
CORTEZ         PTSUNNY   72  30  21 S18       29.92F
PAGOSA SPRINGS CLOUDY    63  17  17 SW18G26   30.07R
TELLURIDE      CLOUDY    51  27  38 SE18      30.14R
WOLF CREEK PAS NOT AVBL
$$

COZ009-010-012-014-032>034-037-058>063-220000-
...CENTRAL COLORADO...

CITY           SKY/WX    TMP DP  RH WIND       PRES   REMARKS
ASPEN          CLOUDY    56  33  42 S23G32    30.07R
BUENA VISTA    LGT RAIN  49  39  69 CALM      30.14S
COPPER MTN     CLOUDY    41  27  56 SE23      30.26F
BERTHOUD PASS  FAIR      30  23  74 MISG      30.32F THUNDER
COTTONWOOD PAS LGT RAIN  45  36  70 E7        30.21F
GUNNISON       PTSUNNY   59  30  33 N6        30.06F
KREMMLING      CLOUDY    55  32  41 E13G20    30.08S
LEADVILLE      CLOUDY    46  29  51 S22G28    30.17F
SALIDA         CLOUDY    53  45  73 E13       30.17F
SUNLIGHT       CLOUDY    48  32  53 CALM      30.22F
WILKERSON PASS CLOUDY    37  32  81 E5        30.30F
$$

COZ069>075-220000-
...SAN LUIS VALLEY/SANGRE DE CRISTO MOUNTAINS...

CITY           SKY/WX    TMP DP  RH WIND       PRES   REMARKS
ALAMOSA        CLOUDY    64  34  32 S25G33    30.03F
LA VETA PASS   SNOW     N/A N/A N/A MISG      30.23F VSB<1/4
SAGUACHE       CLOUDY    59  36  41 SE18G29   30.07S
$$

COZ035-036-038>040-220000-
...NORTHERN COLORADO FRONT RANGE...

CITY           SKY/WX    TMP DP  RH WIND       PRES   REMARKS
DENVER INTL AP CLOUDY    53  45  74 N8        30.11F
DMNS CITY PARK   N/A     54  42  64 N1        30.12S
AURORA         CLOUDY    52  43  72 NW2       30.12F
FRONT RANGE AP CLOUDY    55  46  71 SE14      30.12F
ERIE MUNI ARPT CLOUDY    52  43  71 CALM      30.12F
BOULDER MUN AP CLOUDY    50  45  81 CALM      30.12S
CENTENNIAL     CLOUDY    51  42  71 CALM      30.12F
BROOMFIELD     CLOUDY    52  45  76 N7        30.13F
FORT COLLINS   CLOUDY    55  45  67 N7        30.12F
LONGMONT       CLOUDY    56  44  63 CALM      30.13S
$$

COZ041-046-047-076>085-087-088-220000-
...PIKES PEAK/PALMER DIVIDE AND SOUTHERN FOOTHILLS...

CITY           SKY/WX    TMP DP  RH WIND       PRES   REMARKS
COLO. SPRINGS  CLOUDY    47  43  86 S10       30.17F
A. F. ACADEMY  CLOUDY    45  43  93 S9        30.15F
ELLICOTT       NOT AVBL
FALCON         CLOUDY    45  42  90 S9        30.18F
FORT CARSON    CLOUDY    48  44  85 SE7       30.15F
LIMON          CLOUDY    48  43  82 S13G20    30.17F
MONUMENT HILL  NOT AVBL
TRINIDAD       CLOUDY    55  45  68 S3        30.11F
$$

COZ042>045-048>051-090-091-220000-
...NORTHEAST COLORADO...

CITY           SKY/WX    TMP DP  RH WIND       PRES   REMARKS
GREELEY ARPT   CLOUDY    57  45  62 N8        30.11F
AKRON          CLOUDY    54  45  71 SE18      30.15F
BURLINGTON     CLOUDY    54  43  66 SE15      30.18F
WRAY           CLOUDY    60  44  54 SE13G22   30.17F
STERLING       CLOUDY    59  45  58 SE15      30.13F
HOLYOKE        NOT AVBL
FORT MORGAN    CLOUDY    58  43  56 S15       30.13S
$$

COZ086-089-092>099-220000-
...SOUTHEAST COLORADO...

CITY           SKY/WX    TMP DP  RH WIND       PRES   REMARKS
PUEBLO         CLOUDY    54  47  77 E9        30.12F
LA JUNTA       CLOUDY    59  47  64 E17       30.11F
LAMAR          CLOUDY    56  45  66 SE14      30.15F
SPRINGFIELD      N/A     52  44  74 S14       30.18F
$$


USA.gov is the U.S. government's official web portal to all federal, state and local government web resources and services.